This demonstration page uses our WeatherBlox Daily Observations layout. Learn more.

Left ArrowRight Arrow

31.84235, -102.49876

Hourly Observations for November 30, 2015

Temp ( °F °C ) Dew Point ( °F °C ) Humidity (%) Winds ( mph kmh ) Pressure ( in mb ) Visibility ( mi km ) Precip ( " mm )
12:53 am 00:53 Mostly Cloudy with Fog 42 5.6 40 4.4 92 92 SSW 5 7 30.00 1016 1 1 0.00 0.00
1:18 am 01:18 Cloudy with Mist and Fog 42 5.6 41 5 96 96 S 6 9 30.06 1018 1 2 0.00 0.00
1:53 am 01:53 Cloudy with Mist and Fog 42 5.6 41 5 96 96 SW 6 9 29.99 1016 1 2 0.00 0.00
2:12 am 02:12 Cloudy with Mist and Fog 42 5.6 41 5 96 96 SW 5 7 30.06 1018 1 1 0.00 0.00
2:33 am 02:33 Cloudy with Mist and Fog 42 5.6 41 5 96 96 SW 6 9 30.06 1018 2 2 0.00 0.00
2:53 am 02:53 Cloudy with Mist and Fog 42 5.6 41 5 96 96 SSW 3 6 29.97 1015 3 4 0.00 0.00
3:29 am 03:29 Cloudy with Mist and Fog 42 5.6 41 5 96 96 Calm 30.03 1017 4 6 0.00 0.00
3:53 am 03:53 Cloudy with Mist and Fog 42 5.6 41 5 96 96 WNW 3 6 29.97 1015 3 5 0.00 0.00
3:57 am 03:57 Cloudy with Mist and Fog 43 6.1 41 5 93 93 W 3 6 30.03 1017 2 3 0.00 0.00
4:23 am 04:23 Cloudy with Fog 43 6.1 41 5 93 93 W 5 7 30.03 1017 1 1 0.00 0.00
4:53 am 04:53 Cloudy with Mist and Fog 43 6.1 41 5 93 93 WSW 5 7 29.95 1014 2 3 0.00 0.00
5:01 am 05:01 Cloudy with Mist and Fog 43 6.1 41 5 93 93 SW 6 9 30.03 1017 2 2 0.00 0.00
5:23 am 05:23 Cloudy with Mist and Fog 43 6.1 41 5 93 93 SSW 6 9 30.00 1016 1 1 0.00 0.00
5:36 am 05:36 Cloudy with Mist and Fog 43 6.1 41 5 93 93 WSW 5 7 30.03 1017 1 2 0.00 0.00
5:53 am 05:53 Cloudy with Mist and Fog 42 5.6 41 5 96 96 WSW 7 11 29.96 1015 1 1 0.00 0.00
6:43 am 06:43 Cloudy with Mist and Fog 43 6.1 41 5 93 93 WSW 7 11 30.03 1017 1 2 0.00 0.00
6:53 am 06:53 Cloudy with Mist and Fog 43 6.1 41 5 93 93 WSW 9 15 29.98 1015 1 2 0.00 0.00
7:04 am 07:04 Mostly Cloudy with Mist and Fog 43 6.1 41 5 93 93 W 10 17 30.06 1018 1 1 0.00 0.00
7:23 am 07:23 Mostly Cloudy with Mist and Fog 42 5.6 41 5 96 96 W 10 17 30.06 1018 1 2 0.00 0.00
7:38 am 07:38 Mostly Cloudy with Mist and Fog 42 5.6 41 5 96 96 WSW 9 15 30.06 1018 1 1 0.00 0.00
7:53 am 07:53 Mostly Cloudy with Fog 42 5.6 41 5 96 96 WSW 9 15 30.00 1016 0 0 0.00 0.00
8:46 am 08:46 Mostly Cloudy with Fog 42 5.6 41 5 96 96 W 10 17 30.06 1018 1 1 0.00 0.00
8:53 am 08:53 Cloudy with Fog 42 5.6 41 5 96 96 W 12 19 30.02 1017 1 1 0.00 0.00
9:01 am 09:01 Mostly Cloudy with Fog 43 6.1 42 5.6 97 97 W 9 15 30.12 1020 0 0 0.00 0.00
9:12 am 09:12 Cloudy with Fog 43 6.1 42 5.6 97 97 W 8 13 30.12 1020 1 1 0.00 0.00
9:27 am 09:27 Cloudy with Mist and Fog 43 6.1 41 5 93 93 NW 7 11 30.15 1021 2 3 0.00 0.00
9:36 am 09:36 Cloudy with Mist and Fog 43 6.1 42 5.6 97 97 NW 7 11 30.15 1021 1 1 0.00 0.00
9:46 am 09:46 Cloudy with Mist and Fog 43 6.1 41 5 93 93 NW 7 11 30.15 1021 3 4 0.00 0.00
9:53 am 09:53 Cloudy with Mist and Fog 43 6.1 41 5 93 93 NNW 7 11 30.06 1018 2 3 0.00 0.00
10:10 am 10:10 Cloudy with Mist and Fog 43 6.1 41 5 93 93 NNW 9 15 30.15 1021 3 5 0.00 0.00
10:34 am 10:34 Cloudy 43 6.1 41 5 93 93 N 10 17 30.15 1021 10 16 0.00 0.00
10:53 am 10:53 Cloudy 43 6.1 40 4.4 89 89 N 9 15 30.06 1018 10 16 0.00 0.00
11:53 am 11:53 Cloudy 46 7.8 40 4.4 79 79 N 9 15 30.05 1018 10 16 0.00 0.00
12:19 pm 12:19 Partly Cloudy 48 8.9 40 4.4 74 74 NNW 5 7 30.06 1018 10 16 0.00 0.00
12:53 pm 12:53 Sunny 49 9.4 40 4.4 71 71 NW 6 9 30.01 1016 10 16 0.00 0.00
1:53 pm 13:53 Sunny 52 11.1 39 3.9 61 61 Calm 29.98 1015 9 14 0.00 0.00
2:53 pm 14:53 Sunny 52 11.1 39 3.9 61 61 VRB 3 6 29.97 1015 8 13 0.00 0.00
3:53 pm 15:53 Sunny 53 11.7 40 4.4 61 61 VRB 3 6 29.96 1015 10 16 0.00 0.00
4:53 pm 16:53 Sunny 53 11.7 40 4.4 61 61 Calm 29.96 1015 10 16 0.00 0.00
5:53 pm 17:53 Clear 50 10 40 4.4 68 68 SE 5 7 29.98 1015 10 16 0.00 0.00
6:53 pm 18:53 Clear 48 8.9 40 4.4 74 74 SSE 5 7 29.99 1016 10 16 0.00 0.00
7:53 pm 19:53 Clear 48 8.9 40 4.4 74 74 SE 5 7 30.00 1016 10 16 0.00 0.00
8:53 pm 20:53 Clear 45 7.2 39 3.9 80 80 S 3 6 30.01 1016 10 16 0.00 0.00
9:53 pm 21:53 Clear 46 7.8 40 4.4 79 79 Calm 30.02 1017 10 16 0.00 0.00
10:53 pm 22:53 Clear 43 6.1 39 3.9 86 86 SSW 3 6 30.04 1017 9 14 0.00 0.00
11:53 pm 23:53 Clear 43 6.1 39 3.9 86 86 SW 3 6 30.02 1017 10 16 0.00 0.00

Powered by AerisWeather